Weather Roundup
Issued by NWS Chicago, IL

Home | Current Version | Previous Version | Text Only | Print | Product List | Glossary Off
Versions: 1 2 3 4 5 6 7 8 9 10 11 12 13 14 15 16 17 18 19 20 21 22 23 24 25 26 27 28 29 30 31 32 33 34 35 36 37 38 39 40 41 42 43 44 45 46 47 48 49 50

000
NZUS59 KLOT 011305
HRRLOT

CHICAGO AREA WEATHER ROUNDUP
NATIONAL WEATHER SERVICE CHICAGO/ROMEOVILLE IL
800 AM CDT WED JUL 01 2015

NOTE: "FAIR" INDICATES FEW OR NO CLOUDS BELOW 12,000 FEET WITH NO
SIGNIFICANT WEATHER AND/OR OBSTRUCTIONS TO VISIBILITY.

* THESE STATIONS ARE NOT UNDER NWS QUALITY CONTROL. THEY ALSO MAY NOT
  REPORT WEATHER SUCH AS PRECIPITATION OR FOG.

ILZ005-006-012>014-019>023-011400-
NORTHEAST ILLINOIS

CITY           SKY/WX    TMP DP  RH WIND       PRES   REMARKS
OHARE          CLOUDY    57  51  80 NE3       29.97S
MIDWAY         PTSUNNY   61  52  72 NE9       29.97R
AURORA         PTSUNNY   60  52  74 NE7       29.96S
WAUKEGAN       CLOUDY    56  52  86 CALM      29.96S
DUPAGE AIRPORT CLOUDY    58  52  80 E9        29.96S
WHEELING       CLOUDY    58  51  78 CALM      29.99R
NORTHERLY IS     N/A     57  52  83 MISG        N/A
$$

WIZ051-052-058>065-066-070>072-011400-
SOUTHEAST WISCONSIN

CITY           SKY/WX    TMP DP  RH WIND       PRES   REMARKS
MILWAUKEE      MOSUNNY   57  45  64 NW7       29.98R
KENOSHA*       PTSUNNY   58  50  75 N5        29.97S
RACINE*        SUNNY     58  48  69 N6        29.99R
WAUKESHA       MOSUNNY   55  46  71 NW7       29.98S
$$

INZ001>003-010>013-019-020-011400-
NORTHWEST INDIANA

CITY           SKY/WX    TMP DP  RH WIND       PRES   REMARKS
GARY*          PTSUNNY  N/A N/A N/A N10       29.97S
MICHIGAN CITY* NOT AVBL
RENSSELAER*    NOT AVBL
$$

LMZ740>746-011400-
SOUTHERN LAKE MICHIGAN

STATION/POSITION TIME  SKY/WX   TEMP WIND        PRES    VSBY
                                AIR  DIR/SP/G
                 (UTC)          (F)  (DEG/KT/KT) (MB)    (MI)
HARRISON CRIB    1200            56   20/  8/ 10   N/A
BURNHAM HARBOR   1300            57   10/  5/ 10   N/A
CALUMET HARBOR   1200            57   10/  6/ 11   N/A
BURNS HARBOR     1200            58   30/ 13/ 15 1015.2R
MICHIGAN CITY    1200            58  350/ 12/ 15   N/A
$$

ABBREVIATIONS USED IN REMARKS
   TC - TEMPERATURE IN CELSIUS
  WCI - WIND CHILL INDEX
   HX - HEAT INDEX
  VSB - VISIBILITY
$$



USA.gov is the U.S. government's official web portal to all federal, state and local government web resources and services.